Location: ??????
(37.8203°N, 24.0241°E)
Time: 12:14:30
(UTC+00:00)

Daily predictions for brighter satellites

Satellite Brightness Start Highest point End
(mag) Time Altitude Azimuth Time Altitude Azimuth Time Altitude Azimuth
Cosmos 1151 Rocket 3.1 15:28:49 10° S 15:32:59 55° E 15:37:10 10° NNE
Sich 1 3.1 15:28:56 10° N 15:33:19 85° W 15:37:37 10° S
Radarsat Rocket 4.1 15:29:44 10° SSE 15:35:44 75° ENE 15:42:29 10° NNW
Cosmos 1470 Rocket 4.4 15:34:13 10° NNE 15:37:58 28° ENE 15:41:41 10° SE
CZ-4B DEB 4.5 15:33:19 10° S 15:38:47 78° WSW 15:44:17 10° NNW
CZ-4C R/B 4.0 15:35:54 10° N 15:39:25 50° WNW 15:42:54 10° SSW
SL-8 Rocket 4.1 15:33:36 10° N 15:39:47 60° E 15:45:59 10° SSE
Cosmos 1515 Rocket 4.3 15:36:53 10° SSE 15:40:46 32° E 15:44:42 10° NNE
Cosmos 2341 Rocket 4.1 15:34:45 10° N 15:41:06 82° E 15:47:28 10° S
TIMED 4.5 15:40:03 10° S 15:44:23 73° ESE 15:48:45 10° NNE
CORIOLIS 4.2 15:44:03 10° SSE 15:49:21 63° ENE 15:54:44 10° N
COSMO-SKYMED 1 3.5 15:47:40 10° NE 15:51:26 28° E 15:55:11 10° SSE
Cosmos 2285 Rocket 4.0 15:45:05 10° NNW 15:51:28 73° ENE 15:57:46 10° SSE
Cosmos 2228 Rocket 4.4 15:49:39 10° SE 15:53:05 22° E 15:56:31 10° NE
USA 81 4.0 15:48:04 10° N 15:53:20 67° E 15:58:35 10° SSE
H-2A R/B 3.8 15:54:40 11° NE 15:54:40 11° NE 15:55:46 10° NE
X-37B 1.7 15:51:53 10° W 15:54:48 33° NNW 15:57:12 14° NE
BREEZE-M TANK 2.9 15:50:57 10° WNW 15:55:56 66° SSW 15:59:12 10° SE
Cosmos 1689 Rocket 3.8 15:57:04 15° E 15:57:28 15° E 15:59:19 10° SE
Meteor 1-4 Rocket 2.4 15:54:04 10° S 15:57:40 77° E 16:01:14 10° NNE
Cosmos 1812 4.0 15:56:26 10° SE 15:59:22 21° E 16:01:27 14° NE
Cosmos 2181 Rocket 4.2 15:54:12 10° S 16:00:37 79° W 16:07:00 10° N
Cosmos 1328 Rocket 3.7 15:56:23 10° S 16:00:41 79° W 16:05:02 10° N
Cosmos 1939 Rocket 3.6 15:57:34 10° SE 16:00:57 30° ENE 16:04:23 10° N
CZ-4 R/B 3.5 16:05:25 11° NNE 16:05:25 11° NNE 16:05:38 10° NNE
NOAA 11 4.1 15:59:45 10° SSE 16:05:06 66° ENE 16:10:30 10° N
Meteor 1-20 Rocket 4.4 15:59:38 10° N 16:05:30 82° W 16:11:16 10° S
CZ-4B R/B 3.3 16:00:58 10° S 16:06:17 77° WSW 16:11:36 10° NNW
Cosmos 1680 Rocket 4.5 16:02:23 10° SSE 16:06:45 27° E 16:09:56 16° NE
Cosmos 1933 Rocket 3.9 16:03:53 10° N 16:08:07 41° E 16:12:19 10° SSE
Cosmos 1666 Rocket 4.5 16:04:48 10° NNW 16:09:07 53° W 16:13:27 10° S
Cosmos 1603 3.7 16:03:37 10° S 16:09:09 63° ESE 16:14:42 10° NNE
H-2A R/B 4.1 16:05:23 10° SSW 16:09:22 38° W 16:13:15 10° NNW
Lacrosse 4 Rocket 2.9 16:07:49 10° SE 16:10:21 16° ESE 16:10:37 16° E
CZ-3B R/B 1.0 16:06:06 10° SW 16:10:24 79° SE 16:11:29 26° NE
Cosmos 44 4.2 16:06:08 10° NW 16:11:24 59° WSW 16:16:42 10° SSE
Cosmos 1943 3.3 16:07:05 10° S 16:12:36 59° ESE 16:18:07 10° NNE
Cosmos 1602 3.6 16:08:44 10° N 16:12:39 75° E 16:16:29 10° SSE
SL-24 R/B 4.1 16:09:35 12° NNE 16:12:46 38° E 16:16:11 10° SSE
Cosmos 1538 Rocket 4.3 16:10:54 10° SSW 16:16:15 74° WNW 16:21:39 10° NNE
CENTAUR R/B 3.1 16:12:15 10° S 16:17:11 33° ESE 16:20:30 20° ENE
CZ-2D R/B 3.9 16:14:58 10° SE 16:18:23 32° ENE 16:21:49 10° N
Cosmos 2369 Rocket 2.3 16:13:24 10° NNW 16:18:59 54° ENE 16:24:29 10° SE
Cosmos 1943 Rocket 2.2 16:14:57 10° NNW 16:20:32 88° WSW 16:26:08 10° SSE
Meteor 1-14 Rocket 4.3 16:14:55 10° N 16:20:54 70° E 16:26:50 10° SSE
Okean O Rocket 2.5 16:18:40 10° S 16:22:54 52° W 16:27:12 10° NNW
H-2A R/B 4.1 16:19:39 10° NNW 16:23:13 27° WNW 16:26:50 10° SW
Okean-O 3.4 16:20:42 10° SE 16:24:30 29° ENE 16:28:19 10° N
Cosmos 1782 3.5 16:20:44 10° SSW 16:24:36 55° W 16:28:31 10° N
Cosmos 1461 3.9 16:21:01 10° S 16:25:00 32° ESE 16:26:19 27° E
NOSS 3-2 (C) 3.8 16:20:05 10° S 16:25:01 36° ESE 16:27:40 24° ENE
SL-08 R/B 4.3 16:23:32 10° N 16:29:40 74° E 16:35:45 10° SSE
Meteor 1-27 Rocket 4.3 16:31:34 10° SSE 16:36:27 33° E 16:37:41 30° ENE
SKYMED 2 3.6 16:35:15 10° N 16:39:36 78° WNW 16:43:56 10° SSW
ERS-2 3.2 16:36:55 10° N 16:40:26 45° WNW 16:43:56 10° SSW
Meteor 1-10 Rocket 4.1 16:35:08 10° S 16:40:43 64° E 16:46:14 10° NNE
Cosmos 1437 Rocket 4.0 16:37:24 10° SSE 16:39:40 26° SE 16:39:40 26° SE
USA 276 3.8 16:44:07 10° SSW 16:45:59 23° SSE 16:45:59 23° SSE
Gblst 52 Del rocket 4.5 16:41:46 10° SSW 16:48:13 58° SE 16:50:20 38° ENE
NOSS 3-2 (A) 3.3 16:44:42 10° SW 16:50:13 81° WNW 16:54:01 24° NNE
Hubble Space Telescope 3.1 16:49:36 10° S 16:51:21 12° SSE 16:51:45 12° SSE
CZ-4B R/B 4.1 16:57:42 10° NNW 16:59:47 17° WNW 17:01:54 10° WSW
Cosmos 2239 Rocket 4.3 16:55:56 10° N 17:02:07 77° E 17:08:19 10° S
USA 215 3.3 16:59:21 29° NE 17:02:58 75° NW 17:09:28 10° SW
Cosmos 1500 4.1 17:05:12 10° NNW 17:08:54 49° W 17:12:36 10° S
USA 238 DEB 3.8 17:02:56 10° SW 17:09:26 71° NW 17:13:06 29° NNE
USA 238 3.8 17:03:01 10° SW 17:09:31 72° NW 17:13:10 29° NNE
Cosmos 1656 Rocket 3.5 17:08:50 10° NNW 17:14:29 87° ENE 17:17:20 30° SSE
NOAA 15 4.5 17:09:41 10° SSE 17:14:59 88° ENE 17:20:17 10° NNW
MOS 1 Rocket 3.7 17:13:26 19° N 17:17:20 74° WNW 17:22:38 10° SSW
CZ-2C R/B 3.0 17:12:58 10° S 17:18:01 74° WSW 17:22:52 10° NNW
USA 281 3.0 17:17:44 10° SSE 17:24:17 82° ENE 17:30:52 10° NNW
Cosmos 1934 Rocket 3.8 17:18:43 10° N 17:25:06 80° E 17:31:22 10° S
Cosmos 1238 Rocket 3.9 17:23:50 10° NNW 17:28:00 52° W 17:33:01 10° S
X-37B 3.9 17:29:28 10° NW 17:29:28 10° NW 17:29:28 10° NW
H-2A R/B 3.2 17:27:29 10° SSE 17:35:17 32° NNW 17:37:58 10° NNW
USA 267 4.0 17:34:11 37° N 17:34:11 37° N 17:39:07 10° NNW
CZ-4 R/B 3.8 17:34:18 10° SSW 17:41:26 11° NNW 17:41:39 10° NNW
ATLAS 3B R/B 4.2 17:35:22 10° S 17:37:30 20° SSE 17:37:30 20° SSE
Meteor 1-11 Rocket 4.1 17:38:20 10° NNW 17:44:05 64° W 17:49:55 10° S
NOSS 3-3 (A) 4.5 17:38:27 10° NNW 17:46:15 88° ENE 17:47:58 61° SE
NOSS 3-3 (C) 4.5 17:38:32 10° NNW 17:46:21 87° ENE 17:47:58 63° SE
Lacrosse 4 Rocket 3.5 17:44:57 10° SW 17:46:59 24° WSW 17:46:59 24° WSW
CENTAUR R/B 3.5 18:02:07 10° WSW 18:07:35 40° NW 18:07:44 40° NW
